Location: Bats
(43.6587°N, 0.4584°W)
Time: 15:04:47
(UTC+00:00)

Nadezhda 3 Rocket - Visible Passes

Search period start: 11 April 2026 00:00
Search period end: 21 April 2026 00:00
Orbit: 955 x 999 km, 82.9° (Epoch: 11 April)

Date Brightness Start Highest point End Pass type
(mag) Time Alt. Az. Time Alt. Az. Time Alt. Az.
11 Apr 4.0 19:59:29 10° N 20:05:40 83° W 20:11:48 10° S visible
11 Apr 6.6 21:47:55 10° WNW 21:50:01 12° WNW 21:52:06 10° W visible
12 Apr 5.0 20:25:29 10° NNW 20:31:20 46° W 20:37:07 10° SSW visible
13 Apr 4.2 19:05:48 10° N 19:11:46 49° ENE 19:17:42 10° SSE visible
13 Apr 6.0 20:51:53 10° NNW 20:56:49 26° W 21:01:42 10° SW visible
14 Apr 4.0 19:31:27 10° N 19:37:38 87° E 19:43:46 10° S visible
14 Apr 6.6 21:19:10 10° NW 21:22:07 14° WNW 21:25:02 10° WSW visible
15 Apr 4.8 19:57:23 10° NNW 20:03:20 53° W 20:09:15 10° SSW visible
16 Apr 5.8 20:23:40 10° NNW 20:28:51 29° W 20:34:00 10° SW visible
17 Apr 6.6 20:50:39 10° NW 20:54:11 16° W 20:57:45 10° WSW visible
18 Apr 4.6 19:29:16 10° NNW 19:35:20 60° W 19:41:20 10° S visible
19 Apr 5.7 19:55:29 10° NNW 20:00:53 33° W 20:06:16 10° SSW visible
20 Apr 6.6 20:22:14 10° NW 20:26:17 19° W 20:30:18 10° WSW visible
